| time (UTC) | temp F | wind direction | speed MPH | gust MPH | rain 1hr in | rain 24hr in | rain mn in | humidity % | barometer mb |
| 20260508181550 | 52 | 201 | 5.0 | 7.0 | 0.00 | 0.03 | 0.00 | 87 | 1008.3 |
| 20260508180040 | 52 | 215 | 5.0 | 8.0 | 0.00 | 0.03 | 0.00 | 87 | 1008.4 |
| 20260508174538 | 51 | 217 | 5.0 | 7.0 | 0.00 | 0.03 | 0.00 | 86 | 1008.7 |
| 20260508173037 | 51 | 235 | 5.0 | 7.0 | 0.00 | 0.03 | 0.00 | 86 | 1008.9 |
| 20260508171537 | 52 | 200 | 3.0 | 6.0 | 0.00 | 0.03 | 0.00 | 84 | 1009.0 |
| 20260508170031 | 51 | 211 | 3.0 | 6.0 | 0.00 | 0.03 | 0.00 | 85 | 1009.2 |
| 20260508164531 | 52 | 201 | 3.0 | 6.0 | 0.00 | 0.03 | 0.00 | 84 | 1009.5 |
| 20260508163029 | 52 | 209 | 2.0 | 5.0 | 0.00 | 0.03 | 0.00 | 84 | 1009.8 |
| 20260508161534 | 51 | 194 | 4.0 | 7.0 | 0.00 | 0.03 | 0.00 | 83 | 1009.8 |
| 20260508160027 | 51 | 205 | 4.0 | 6.0 | 0.00 | 0.03 | 0.00 | 83 | 1010.0 |
| 20260508154523 | 51 | 205 | 3.0 | 7.0 | 0.00 | 0.03 | 0.00 | 83 | 1010.0 |
| 20260508153024 | 50 | 207 | 4.0 | 7.0 | 0.00 | 0.03 | 0.00 | 84 | 1010.1 |
| 20260508151519 | 50 | 210 | 5.0 | 7.0 | 0.00 | 0.03 | 0.00 | 85 | 1010.1 |
| 20260508150021 | 49 | 207 | 3.0 | 5.0 | 0.00 | 0.03 | 0.00 | 87 | 1010.2 |
| 20260508144534 | 49 | 218 | 3.0 | 5.0 | 0.00 | 0.03 | 0.00 | 88 | 1010.3 |
| 20260508143025 | 49 | 211 | 3.0 | 6.0 | 0.00 | 0.03 | 0.00 | 87 | 1010.2 |
| 20260508141521 | 49 | 173 | 0.0 | 3.0 | 0.00 | 0.03 | 0.00 | 87 | 1010.2 |
| 20260508140011 | 49 | 144 | 0.0 | 0.0 | 0.00 | 0.03 | 0.00 | 87 | 1010.3 |
| 20260508134510 | 49 | 136 | 0.0 | 0.0 | 0.00 | 0.03 | 0.00 | 86 | 1010.3 |
| 20260508133008 | 49 | 38 | 0.0 | 0.0 | 0.00 | 0.03 | 0.00 | 86 | 1010.4 |
| 20260508131507 | 49 | 28 | 0.0 | 0.0 | 0.00 | 0.03 | 0.00 | 86 | 1010.5 |
| 20260508130002 | 48 | 28 | 0.0 | 0.0 | 0.00 | 0.03 | 0.00 | 89 | 1010.5 |
| 20260508124602 | 46 | 28 | 0.0 | 2.0 | 0.00 | 0.03 | 0.00 | 90 | 1010.5 |
| 20260508123057 | 46 | 351 | 0.0 | 1.0 | 0.00 | 0.03 | 0.00 | 91 | 1010.5 |
| 20260508121554 | 45 | 341 | 0.0 | 0.0 | 0.00 | 0.03 | 0.00 | 94 | 1010.6 |
| 20260508120053 | 43 | 339 | 0.0 | 0.0 | 0.00 | 0.03 | 0.00 | 96 | 1010.5 |
| 20260508114558 | 41 | 339 | 0.0 | 0.0 | 0.00 | 0.03 | 0.00 | 96 | 1010.4 |
| 20260508113122 | 40 | 339 | 2.0 | 4.0 | 0.00 | 0.03 | 0.00 | 96 | 1010.3 |
| 20260508111551 | 38 | 342 | 2.0 | 4.0 | 0.00 | 0.03 | 0.00 | 96 | 1010.3 |
| 20260508110051 | 38 | 350 | 1.0 | 4.0 | 0.00 | 0.03 | 0.00 | 96 | 1010.2 |
| 20260508104557 | 37 | 11 | 2.0 | 4.0 | 0.00 | 0.03 | 0.00 | 96 | 1010.2 |
| 20260508103059 | 38 | 14 | 2.0 | 4.0 | 0.00 | 0.03 | 0.00 | 96 | 1010.3 |
| 20260508101551 | 38 | 15 | 2.0 | 4.0 | 0.00 | 0.03 | 0.00 | 95 | 1010.2 |
| 20260508100047 | 38 | 15 | 2.0 | 4.0 | 0.00 | 0.03 | 0.00 | 95 | 1010.2 |
| 20260508094544 | 39 | 17 | 2.0 | 3.0 | 0.00 | 0.03 | 0.00 | 95 | 1010.3 |
| 20260508093043 | 39 | 17 | 2.0 | 3.0 | 0.00 | 0.03 | 0.00 | 94 | 1010.3 |
| 20260508091545 | 40 | 17 | 2.0 | 4.0 | 0.00 | 0.03 | 0.00 | 94 | 1010.3 |
| 20260508090045 | 40 | 17 | 1.0 | 4.0 | 0.00 | 0.03 | 0.00 | 95 | 1010.4 |
| 20260508084538 | 40 | 19 | 1.0 | 3.0 | 0.00 | 0.03 | 0.00 | 94 | 1010.5 |
| 20260508083039 | 41 | 19 | 2.0 | 3.0 | 0.00 | 0.03 | 0.00 | 94 | 1010.5 |
| 20260508081539 | 41 | 20 | 2.0 | 3.0 | 0.00 | 0.03 | 0.00 | 95 | 1010.6 |
| 20260508080040 | 41 | 20 | 1.0 | 3.0 | 0.00 | 0.03 | 0.00 | 94 | 1010.7 |
| 20260508074534 | 42 | 21 | 0.0 | 3.0 | 0.00 | 0.03 | 0.00 | 93 | 1010.7 |
| 20260508073036 | 42 | 27 | 1.0 | 5.0 | 0.00 | 0.03 | 0.00 | 94 | 1010.9 |
| 20260508071533 | 42 | 37 | 2.0 | 6.0 | 0.00 | 0.03 | 0.00 | 95 | 1010.9 |
| 20260508070032 | 41 | 311 | 3.0 | 5.0 | 0.00 | 0.03 | 0.00 | 95 | 1011.0 |
| 20260508064551 | 41 | 344 | 2.0 | 4.0 | 0.00 | 0.03 | 0.00 | 94 | 1011.1 |
| 20260508063029 | 42 | 318 | 2.0 | 4.0 | 0.00 | 0.03 | 0.00 | 94 | 1011.1 |
| 20260508061524 | 42 | 16 | 1.0 | 3.0 | 0.00 | 0.03 | 0.00 | 94 | 1011.1 |
| 20260508060021 | 43 | 16 | 1.0 | 3.0 | 0.00 | 0.03 | 0.00 | 93 | 1011.1 |
| 20260508054527 | 44 | 42 | 2.0 | 5.0 | 0.00 | 0.03 | 0.00 | 93 | 1010.9 |
| 20260508053014 | 45 | 44 | 1.0 | 5.0 | 0.00 | 0.03 | 0.00 | 92 | 1010.7 |
| 20260508051522 | 45 | 13 | 3.0 | 7.0 | 0.00 | 0.03 | 0.00 | 92 | 1010.6 |
| 20260508050016 | 46 | 53 | 3.0 | 7.0 | 0.00 | 0.03 | 0.00 | 92 | 1010.5 |
| 20260508044509 | 45 | 71 | 4.0 | 8.0 | 0.00 | 0.03 | 0.03 | 92 | 1010.5 |
| 20260508043012 | 46 | 69 | 4.0 | 7.0 | 0.00 | 0.03 | 0.03 | 92 | 1010.5 |
| 20260508041507 | 46 | 84 | 4.0 | 9.0 | 0.00 | 0.03 | 0.03 | 93 | 1010.5 |
| 20260508040007 | 46 | 82 | 6.0 | 11.0 | 0.00 | 0.03 | 0.03 | 93 | 1010.4 |
| 20260508034519 | 45 | 84 | 3.0 | 5.0 | 0.00 | 0.03 | 0.03 | 94 | 1010.3 |
| 20260508033005 | 45 | 229 | 0.0 | 2.0 | 0.00 | 0.03 | 0.03 | 92 | 1010.3 |
| 20260508031505 | 46 | 228 | 0.0 | 2.0 | 0.00 | 0.03 | 0.03 | 91 | 1010.2 |
| 20260508030005 | 47 | 228 | 0.0 | 8.0 | 0.00 | 0.03 | 0.03 | 91 | 1010.1 |
| 20260508024507 | 47 | 200 | 3.0 | 6.0 | 0.00 | 0.03 | 0.03 | 91 | 1010.0 |
| 20260508023004 | 47 | 208 | 2.0 | 6.0 | 0.00 | 0.03 | 0.03 | 90 | 1010.0 |
| 20260508021502 | 48 | 188 | 4.0 | 5.0 | 0.00 | 0.03 | 0.03 | 91 | 1009.8 |
| 20260508020002 | 48 | 204 | 3.0 | 6.0 | 0.00 | 0.03 | 0.03 | 91 | 1009.7 |
| 20260508014502 | 47 | 232 | 2.0 | 6.0 | 0.00 | 0.03 | 0.03 | 90 | 1009.2 |
| 20260508013001 | 47 | 226 | 3.0 | 8.0 | 0.00 | 0.03 | 0.03 | 91 | 1009.0 |
| 20260508011616 | 46 | 227 | 1.0 | 3.0 | 0.00 | 0.03 | 0.03 | 90 | 1009.0 |
| 20260508010104 | 46 | 230 | 0.0 | 3.0 | 0.00 | 0.03 | 0.03 | 89 | 1008.8 |
| 20260508004559 | 46 | 229 | 0.0 | 5.0 | 0.00 | 0.03 | 0.03 | 88 | 1008.8 |
| 20260508003059 | 46 | 227 | 4.0 | 8.0 | 0.00 | 0.03 | 0.03 | 88 | 1008.8 |
| 20260508001557 | 46 | 200 | 4.0 | 7.0 | 0.00 | 0.03 | 0.03 | 86 | 1008.8 |
| 20260508000119 | 47 | 182 | 4.0 | 6.0 | 0.00 | 0.03 | 0.03 | 84 | 1008.9 |
| 20260507234557 | 47 | 171 | 4.0 | 6.0 | 0.00 | 0.03 | 0.03 | 83 | 1008.9 |
| 20260507233056 | 47 | 130 | 2.0 | 6.0 | 0.00 | 0.03 | 0.03 | 86 | 1009.1 |
| 20260507231604 | 47 | 146 | 4.0 | 15.0 | 0.00 | 0.03 | 0.03 | 85 | 1009.1 |
| 20260507230056 | 49 | 159 | 4.0 | 9.0 | 0.00 | 0.03 | 0.03 | 85 | 1009.3 |
| 20260507224555 | 49 | 225 | 2.0 | 14.0 | 0.00 | 0.03 | 0.03 | 86 | 1009.2 |
| 20260507223053 | 49 | 225 | 13.0 | 17.0 | 0.00 | 0.03 | 0.03 | 85 | 1008.8 |
| 20260507221559 | 49 | 211 | 10.0 | 15.0 | 0.00 | 0.03 | 0.03 | 87 | 1009.0 |
| 20260507220052 | 50 | 221 | 10.0 | 16.0 | 0.00 | 0.03 | 0.03 | 86 | 1009.0 |
| 20260507214551 | 50 | 245 | 7.0 | 13.0 | 0.00 | 0.03 | 0.03 | 85 | 1009.1 |
| 20260507213053 | 49 | 232 | 8.0 | 13.0 | 0.02 | 0.03 | 0.03 | 87 | 1008.9 |
| 20260507211558 | 49 | 219 | 8.0 | 11.0 | 0.02 | 0.03 | 0.03 | 89 | 1009.0 |
| 20260507210050 | 48 | 225 | 5.0 | 9.0 | 0.02 | 0.03 | 0.03 | 86 | 1009.1 |
| 20260507204546 | 47 | 184 | 3.0 | 10.0 | 0.03 | 0.03 | 0.03 | 88 | 1009.1 |
| 20260507203046 | 47 | 227 | 5.0 | 10.0 | 0.01 | 0.01 | 0.01 | 81 | 1010.0 |
| 20260507201542 | 47 | 192 | 7.0 | 11.0 | 0.01 | 0.01 | 0.01 | 80 | 1009.7 |
| 20260507200041 | 47 | 219 | 8.0 | 15.0 | 0.01 | 0.01 | 0.01 | 81 | 1010.3 |
| 20260507194540 | 47 | 213 | 9.0 | 13.0 | 0.00 | 0.00 | 0.00 | 79 | 1010.4 |
| 20260507193037 | 47 | 213 | 7.0 | 15.0 | 0.00 | 0.00 | 0.00 | 78 | 1010.5 |
| 20260507191533 | 46 | 227 | 8.0 | 14.0 | 0.00 | 0.00 | 0.00 | 79 | 1011.1 |
| 20260507190037 | 46 | 194 | 9.0 | 17.0 | 0.00 | 0.00 | 0.00 | 74 | 1010.9 |
| 20260507184531 | 46 | 175 | 10.0 | 18.0 | 0.00 | 0.00 | 0.00 | 76 | 1011.1 |
| 20260507183031 | 46 | 209 | 8.0 | 14.0 | 0.00 | 0.00 | 0.00 | 75 | 1011.2 |